ENT3EY LEPA-EPWA

Flight info

Callsign ENT3EY
Flight time 2h 55m
Altitude 36000
Route ISTER DCT NIVDA DCT OMEDA DCT RAPUR DCT TORTU DCT ERTEV DCT MALUG/N0451F370 DCT INGID DCT GAMLI DCT STO DCT LEDVA DCT NETIR DCT USALO DCT KOTEK DCT LOGDA
Aircraft B38M/M-SDFGHIJ1J4J7RWXY/EB1

Departure

Time 2026-05-01 08:01
Airport Palma de Mallorca Airport (LEPA)

Arrival

Time 2026-05-01 10:56
Airport Warsaw Chopin Airport (EPWA)
Time Latitude Longitude Altitude Speed Heading
2026-05-01 07:36 39.54798 2.73606 36 ft 0 kts 58°
2026-05-01 07:53 39.54785 2.73580 36 ft 2 kts 59°
2026-05-01 07:53 39.54777 2.73563 36 ft 2 kts 64°
2026-05-01 07:53 39.54775 2.73542 36 ft 2 kts 99°
2026-05-01 07:53 39.54781 2.73523 35 ft 2 kts 129°
2026-05-01 07:54 39.54794 2.73509 35 ft 0 kts 149°
2026-05-01 07:56 39.54790 2.73512 35 ft 2 kts 148°
2026-05-01 07:56 39.54728 2.73562 36 ft 7 kts 148°
2026-05-01 07:57 39.54676 2.73603 37 ft 9 kts 153°
2026-05-01 07:57 39.54529 2.73582 39 ft 13 kts 238°
2026-05-01 07:58 39.54422 2.73348 41 ft 18 kts 239°
2026-05-01 07:58 39.54285 2.73070 39 ft 9 kts 226°
2026-05-01 07:59 39.54220 2.73099 38 ft 3 kts 99°
2026-05-01 07:59 39.54218 2.73134 38 ft 0 kts 94°
2026-05-01 08:00 39.54368 2.73687 40 ft 77 kts 59°
2026-05-01 08:01 39.55966 2.77052 726 ft 166 kts 58°
2026-05-01 08:01 39.56580 2.78302 1218 ft 173 kts 58°
2026-05-01 08:01 39.57238 2.79682 1589 ft 185 kts 60°
2026-05-01 08:02 39.58666 2.82805 2433 ft 208 kts 60°
2026-05-01 08:02 39.59436 2.84478 3070 ft 213 kts 60°
2026-05-01 08:03 39.61004 2.87891 4240 ft 224 kts 62°
2026-05-01 08:03 39.61612 2.89819 4599 ft 239 kts 74°
2026-05-01 08:03 39.62647 2.94203 5452 ft 264 kts 72°
2026-05-01 08:04 39.63851 2.98842 6739 ft 271 kts 71°
2026-05-01 08:04 39.65066 3.03510 7957 ft 280 kts 71°
2026-05-01 08:05 39.66328 3.08377 9172 ft 290 kts 71°
2026-05-01 08:05 39.66971 3.10837 9802 ft 294 kts 71°
2026-05-01 08:05 39.67633 3.13375 10436 ft 299 kts 71°
2026-05-01 08:06 39.69051 3.18818 11299 ft 324 kts 70°
2026-05-01 08:06 39.70521 3.24473 12625 ft 331 kts 70°
2026-05-01 08:07 39.72012 3.30214 13967 ft 338 kts 70°
2026-05-01 08:07 39.73511 3.36005 15366 ft 342 kts 70°
2026-05-01 08:08 39.74273 3.38940 16020 ft 345 kts 70°
2026-05-01 08:08 39.75810 3.44868 17296 ft 352 kts 70°
2026-05-01 08:09 39.77371 3.50920 18522 ft 357 kts 70°
2026-05-01 08:09 39.78158 3.53980 19109 ft 360 kts 70°
2026-05-01 08:09 39.78959 3.57094 19677 ft 364 kts 70°
2026-05-01 08:10 39.80565 3.63346 20775 ft 370 kts 70°
2026-05-01 08:10 39.82198 3.69722 21806 ft 376 kts 70°
2026-05-01 08:11 39.83846 3.76175 22806 ft 381 kts 70°
2026-05-01 08:11 39.85530 3.82790 23733 ft 388 kts 70°
2026-05-01 08:12 39.87235 3.89499 24617 ft 395 kts 71°
2026-05-01 08:12 39.88087 3.92861 25038 ft 398 kts 71°
2026-05-01 08:12 39.89834 3.99766 25833 ft 406 kts 71°
2026-05-01 08:13 39.90709 4.03231 26270 ft 408 kts 71°
2026-05-01 08:13 39.91598 4.06758 26628 ft 412 kts 71°
2026-05-01 08:13 39.93387 4.13876 27383 ft 418 kts 71°
2026-05-01 08:14 39.94294 4.17496 27721 ft 422 kts 71°
2026-05-01 08:14 39.95205 4.21134 28072 ft 425 kts 71°
2026-05-01 08:14 39.96122 4.24799 28414 ft 428 kts 71°
2026-05-01 08:14 39.97039 4.28474 28736 ft 431 kts 71°
2026-05-01 08:15 39.97957 4.32158 29052 ft 434 kts 71°
2026-05-01 08:15 39.99826 4.39678 29635 ft 441 kts 71°
2026-05-01 08:15 40.00764 4.43462 29987 ft 442 kts 71°
2026-05-01 08:16 40.01722 4.47327 30296 ft 445 kts 71°
2026-05-01 08:16 40.02665 4.51143 30615 ft 447 kts 71°
2026-05-01 08:16 40.03619 4.55013 30924 ft 449 kts 71°
2026-05-01 08:16 40.04566 4.58855 31206 ft 452 kts 71°
2026-05-01 08:17 40.05621 4.62772 31546 ft 453 kts 67°
2026-05-01 08:17 40.06908 4.66540 31800 ft 455 kts 60°
2026-05-01 08:17 40.08615 4.69956 32077 ft 455 kts 51°
2026-05-01 08:17 40.10574 4.73227 32362 ft 456 kts 49°
2026-05-01 08:18 40.12589 4.76403 32643 ft 458 kts 48°
2026-05-01 08:18 40.16689 4.82759 33206 ft 461 kts 48°
2026-05-01 08:19 40.20809 4.89187 33723 ft 465 kts 48°
2026-05-01 08:19 40.22876 4.92431 33982 ft 466 kts 48°
2026-05-01 08:19 40.24974 4.95731 34231 ft 468 kts 48°
2026-05-01 08:19 40.27050 4.99004 34464 ft 470 kts 48°
2026-05-01 08:20 40.29130 5.02288 34704 ft 471 kts 48°
2026-05-01 08:20 40.31211 5.05580 34957 ft 471 kts 48°
2026-05-01 08:20 40.33290 5.08875 35403 ft 467 kts 48°
2026-05-01 08:20 40.35336 5.12122 35690 ft 467 kts 48°
2026-05-01 08:21 40.37395 5.15394 36063 ft 464 kts 48°
2026-05-01 08:21 40.41522 5.21959 36150 ft 468 kts 48°
2026-05-01 08:22 40.45601 5.28466 36152 ft 464 kts 48°
2026-05-01 08:22 40.49690 5.35000 36152 ft 463 kts 48°
2026-05-01 08:23 40.53775 5.41543 36152 ft 464 kts 48°
2026-05-01 08:23 40.57849 5.48080 36151 ft 462 kts 47°
2026-05-01 08:24 40.61912 5.54614 36151 ft 463 kts 47°
2026-05-01 08:24 40.65971 5.61154 36152 ft 463 kts 47°
2026-05-01 08:25 40.70009 5.67678 36150 ft 463 kts 48°
2026-05-01 08:25 40.74068 5.74249 36152 ft 463 kts 48°
2026-05-01 08:26 40.78113 5.80810 36149 ft 462 kts 48°
2026-05-01 08:26 40.82140 5.87355 36150 ft 461 kts 48°
2026-05-01 08:27 40.86198 5.93967 36150 ft 461 kts 48°
2026-05-01 08:27 40.90215 6.00525 36151 ft 460 kts 48°
2026-05-01 08:28 40.94218 6.07072 36156 ft 459 kts 47°
2026-05-01 08:28 40.98230 6.13649 36154 ft 459 kts 47°
2026-05-01 08:29 41.02197 6.20166 36161 ft 458 kts 47°
2026-05-01 08:29 41.06215 6.26781 36157 ft 460 kts 47°
2026-05-01 08:30 41.10191 6.33343 36169 ft 459 kts 47°
2026-05-01 08:30 41.14159 6.39904 36181 ft 458 kts 47°
2026-05-01 08:31 41.18185 6.46574 36181 ft 458 kts 47°
2026-05-01 08:31 41.22143 6.53150 36520 ft 457 kts 47°
2026-05-01 08:31 41.24112 6.56423 36244 ft 459 kts 47°
2026-05-01 08:32 41.26095 6.59685 36250 ft 452 kts 46°
2026-05-01 08:32 41.30083 6.66093 36192 ft 452 kts 46°
2026-05-01 08:33 41.34107 6.72541 36194 ft 455 kts 46°
2026-05-01 08:33 41.38135 6.79025 36196 ft 455 kts 47°
2026-05-01 08:34 41.42142 6.85500 36198 ft 453 kts 46°
2026-05-01 08:34 41.46137 6.91972 36200 ft 453 kts 46°
2026-05-01 08:35 41.50116 6.98433 36199 ft 452 kts 46°
2026-05-01 08:35 41.54087 7.04898 36203 ft 452 kts 46°
2026-05-01 08:36 41.58056 7.11372 36201 ft 451 kts 46°
2026-05-01 08:36 41.62015 7.17846 36203 ft 451 kts 46°
2026-05-01 08:37 41.65950 7.24293 36205 ft 451 kts 46°
2026-05-01 08:37 41.69900 7.30780 36203 ft 450 kts 46°
2026-05-01 08:38 41.73856 7.37288 36202 ft 449 kts 46°
2026-05-01 08:38 41.77787 7.43769 36202 ft 450 kts 46°
2026-05-01 08:39 41.81728 7.50281 36203 ft 449 kts 46°
2026-05-01 08:39 41.85629 7.56742 36201 ft 447 kts 46°
2026-05-01 08:40 41.91474 7.66447 36197 ft 448 kts 46°
2026-05-01 08:40 41.95364 7.72926 36196 ft 446 kts 46°
2026-05-01 08:41 41.99242 7.79397 36195 ft 446 kts 46°
2026-05-01 08:41 42.03145 7.85922 36199 ft 447 kts 46°
2026-05-01 08:42 42.07009 7.92399 36203 ft 444 kts 46°
2026-05-01 08:42 42.10859 7.98865 36207 ft 444 kts 46°
2026-05-01 08:43 42.14684 8.05304 36210 ft 442 kts 46°
2026-05-01 08:43 42.18528 8.11787 36210 ft 443 kts 46°
2026-05-01 08:44 42.22348 8.18243 36215 ft 441 kts 46°
2026-05-01 08:44 42.26148 8.24681 35963 ft 438 kts 45°
2026-05-01 08:45 42.28023 8.27865 36180 ft 437 kts 46°
2026-05-01 08:45 42.29945 8.31079 36216 ft 439 kts 44°
2026-05-01 08:45 42.34352 8.36575 36220 ft 427 kts 25°
2026-05-01 08:46 42.39658 8.39939 36245 ft 417 kts 17°
2026-05-01 08:46 42.44993 8.42887 36238 ft 418 kts 17°
2026-05-01 08:47 42.50369 8.45859 36249 ft 416 kts 18°
2026-05-01 08:47 42.55716 8.48830 36257 ft 414 kts 18°
2026-05-01 08:48 42.61009 8.51779 36254 ft 413 kts 18°
2026-05-01 08:48 42.66348 8.54759 36257 ft 415 kts 18°
2026-05-01 08:49 42.71679 8.57742 36257 ft 413 kts 18°
2026-05-01 08:49 42.76985 8.60717 36262 ft 414 kts 18°
2026-05-01 08:50 42.82296 8.63701 36268 ft 414 kts 18°
2026-05-01 08:50 42.87620 8.66699 36261 ft 413 kts 19°
2026-05-01 08:51 42.92926 8.69690 36265 ft 413 kts 19°
2026-05-01 08:51 42.98201 8.72668 36267 ft 412 kts 19°
2026-05-01 08:52 43.03497 8.75661 36276 ft 413 kts 20°
2026-05-01 08:52 43.08818 8.78680 36276 ft 413 kts 20°
2026-05-01 08:53 43.14082 8.81671 36280 ft 413 kts 20°
2026-05-01 08:53 43.19379 8.84687 36282 ft 410 kts 20°
2026-05-01 08:54 43.24612 8.87668 36282 ft 412 kts 20°
2026-05-01 08:54 43.29911 8.90693 36283 ft 413 kts 20°
2026-05-01 08:55 43.35177 8.93728 36283 ft 410 kts 22°
2026-05-01 08:55 43.40190 8.97485 36287 ft 413 kts 30°
2026-05-01 08:56 43.44841 9.02055 36285 ft 414 kts 33°
2026-05-01 08:56 43.49495 9.06745 36290 ft 412 kts 33°
2026-05-01 08:57 43.54100 9.11420 36285 ft 415 kts 33°
2026-05-01 08:57 43.58747 9.16169 36285 ft 413 kts 33°
2026-05-01 08:58 43.63318 9.20862 36294 ft 411 kts 33°
2026-05-01 08:58 43.67906 9.25583 36285 ft 412 kts 33°
2026-05-01 08:59 43.72468 9.30289 36292 ft 411 kts 33°
2026-05-01 08:59 43.77025 9.35002 36292 ft 409 kts 33°
2026-05-01 09:00 43.81562 9.39700 36293 ft 409 kts 33°
2026-05-01 09:00 43.86094 9.44404 36302 ft 406 kts 33°
2026-05-01 09:01 43.90593 9.49085 36302 ft 408 kts 33°
2026-05-01 09:01 43.95117 9.53798 36296 ft 406 kts 33°
2026-05-01 09:02 43.99618 9.58498 36302 ft 405 kts 33°
2026-05-01 09:02 44.04122 9.63209 36299 ft 406 kts 33°
2026-05-01 09:03 44.08615 9.67917 36310 ft 408 kts 34°
2026-05-01 09:03 44.13141 9.72666 36321 ft 406 kts 34°
2026-05-01 09:04 44.17619 9.77378 36321 ft 406 kts 34°
2026-05-01 09:04 44.22115 9.82119 36325 ft 406 kts 34°
2026-05-01 09:05 44.26584 9.86844 36324 ft 404 kts 34°
2026-05-01 09:05 44.31065 9.91587 36331 ft 405 kts 34°
2026-05-01 09:06 44.35533 9.96325 36323 ft 404 kts 34°
2026-05-01 09:06 44.39990 10.01061 36319 ft 403 kts 34°
2026-05-01 09:07 44.44437 10.05790 36296 ft 402 kts 34°
2026-05-01 09:07 44.48845 10.10494 36295 ft 401 kts 34°
2026-05-01 09:08 44.53277 10.15232 36288 ft 402 kts 35°
2026-05-01 09:08 44.57721 10.19992 36310 ft 401 kts 34°
2026-05-01 09:09 44.62136 10.24728 36320 ft 400 kts 35°
2026-05-01 09:09 44.66530 10.29452 36346 ft 400 kts 35°
2026-05-01 09:10 44.70935 10.34195 36359 ft 400 kts 35°
2026-05-01 09:10 44.75341 10.38954 36369 ft 399 kts 35°
2026-05-01 09:11 44.79749 10.43721 36376 ft 400 kts 35°
2026-05-01 09:11 44.84169 10.48508 36372 ft 402 kts 35°
2026-05-01 09:12 44.88567 10.53286 36373 ft 398 kts 35°
2026-05-01 09:12 44.92923 10.58022 36376 ft 399 kts 35°
2026-05-01 09:13 44.97325 10.62820 36375 ft 398 kts 36°
2026-05-01 09:13 45.01674 10.67569 36378 ft 396 kts 36°
2026-05-01 09:14 45.06049 10.72354 36380 ft 398 kts 36°
2026-05-01 09:14 45.10379 10.77104 36380 ft 396 kts 36°
2026-05-01 09:15 45.14740 10.81897 36374 ft 397 kts 36°
2026-05-01 09:15 45.19064 10.86660 36385 ft 396 kts 36°
2026-05-01 09:16 45.23420 10.91463 36373 ft 395 kts 36°
2026-05-01 09:17 45.29892 10.98618 36373 ft 396 kts 36°
2026-05-01 09:17 45.36349 11.05782 36363 ft 392 kts 37°
2026-05-01 09:18 45.42786 11.12939 36361 ft 393 kts 37°
2026-05-01 09:19 45.49229 11.20128 36355 ft 391 kts 37°
2026-05-01 09:20 45.55636 11.27297 36356 ft 393 kts 37°
2026-05-01 09:21 45.64162 11.36873 36349 ft 391 kts 37°
2026-05-01 09:21 45.70553 11.44074 36343 ft 390 kts 37°
2026-05-01 09:22 45.79050 11.53683 36340 ft 389 kts 37°
2026-05-01 09:23 45.85380 11.60857 36332 ft 388 kts 37°
2026-05-01 09:24 45.91713 11.68066 36334 ft 389 kts 38°
2026-05-01 09:25 46.00154 11.77704 36325 ft 387 kts 37°
2026-05-01 09:26 46.06423 11.84893 36311 ft 386 kts 38°
2026-05-01 09:26 46.12734 11.92149 36310 ft 386 kts 38°
2026-05-01 09:27 46.19002 11.99374 36298 ft 386 kts 38°
2026-05-01 09:28 46.23185 12.04210 36299 ft 387 kts 38°
2026-05-01 09:28 46.27378 12.09066 36298 ft 388 kts 38°
2026-05-01 09:29 46.33644 12.16340 36308 ft 387 kts 38°
2026-05-01 09:30 46.39937 12.23667 36308 ft 385 kts 38°
2026-05-01 09:30 46.46175 12.30949 36308 ft 386 kts 38°
2026-05-01 09:31 46.50363 12.35858 36314 ft 387 kts 38°
2026-05-01 09:32 46.56635 12.43216 36326 ft 388 kts 38°
2026-05-01 09:32 46.62888 12.50584 36338 ft 387 kts 38°
2026-05-01 09:33 46.67068 12.55524 36342 ft 387 kts 38°
2026-05-01 09:34 46.72693 12.63872 36333 ft 388 kts 49°
2026-05-01 09:34 46.77697 12.73247 36303 ft 389 kts 50°
2026-05-01 09:35 46.82686 12.82716 36300 ft 390 kts 50°
2026-05-01 09:36 46.85997 12.89043 36301 ft 388 kts 50°
2026-05-01 09:36 46.89261 12.95301 36301 ft 387 kts 50°
2026-05-01 09:37 46.92521 13.01567 36295 ft 389 kts 50°
2026-05-01 09:37 46.97449 13.11069 36288 ft 388 kts 50°
2026-05-01 09:38 47.02329 13.20513 36277 ft 386 kts 51°
2026-05-01 09:39 47.07182 13.29940 36282 ft 388 kts 51°
2026-05-01 09:39 47.10445 13.36288 36294 ft 388 kts 51°
2026-05-01 09:40 47.15339 13.45846 36307 ft 387 kts 51°
2026-05-01 09:41 47.18653 13.52336 36322 ft 388 kts 51°
2026-05-01 09:41 47.23618 13.62093 36327 ft 388 kts 51°
2026-05-01 09:42 47.26917 13.68583 36327 ft 388 kts 51°
2026-05-01 09:43 47.34065 13.80701 36312 ft 385 kts 47°
2026-05-01 09:43 47.37698 13.86787 36316 ft 387 kts 47°
2026-05-01 09:44 47.43094 13.95899 36320 ft 387 kts 47°
2026-05-01 09:45 47.46703 14.02021 36326 ft 386 kts 47°
2026-05-01 09:45 47.52069 14.11157 36333 ft 386 kts 47°
2026-05-01 09:46 47.55640 14.17258 36337 ft 387 kts 47°
2026-05-01 09:46 47.59225 14.23399 36341 ft 386 kts 47°
2026-05-01 09:47 47.62796 14.29527 36343 ft 386 kts 47°
2026-05-01 09:47 47.66366 14.35667 36347 ft 386 kts 47°
2026-05-01 09:48 47.69922 14.41799 36349 ft 387 kts 47°
2026-05-01 09:48 47.73470 14.47928 36347 ft 385 kts 47°
2026-05-01 09:49 47.77011 14.54062 36341 ft 385 kts 47°
2026-05-01 09:49 47.80536 14.60180 36335 ft 386 kts 47°
2026-05-01 09:50 47.84059 14.66310 36332 ft 385 kts 48°
2026-05-01 09:50 47.87568 14.72429 36327 ft 386 kts 48°
2026-05-01 09:51 47.91003 14.78673 36334 ft 386 kts 53°
2026-05-01 09:51 47.93949 14.85522 36342 ft 388 kts 56°
2026-05-01 09:52 47.96805 14.92396 36350 ft 387 kts 56°
2026-05-01 09:52 47.99663 14.99256 36348 ft 388 kts 55°
2026-05-01 09:53 48.02561 15.06210 36352 ft 390 kts 55°
2026-05-01 09:53 48.05433 15.13117 36347 ft 387 kts 56°
2026-05-01 09:54 48.08313 15.20056 36346 ft 385 kts 56°
2026-05-01 09:54 48.11267 15.27190 36346 ft 388 kts 55°
2026-05-01 09:55 48.14218 15.34336 36345 ft 387 kts 56°
2026-05-01 09:55 48.17144 15.41440 36346 ft 387 kts 56°
2026-05-01 09:56 48.20087 15.48604 36347 ft 387 kts 55°
2026-05-01 09:56 48.23002 15.55716 36350 ft 386 kts 56°
2026-05-01 09:57 48.25921 15.62858 36356 ft 386 kts 56°
2026-05-01 09:57 48.28847 15.70036 36359 ft 386 kts 56°
2026-05-01 09:58 48.31755 15.77191 36360 ft 387 kts 56°
2026-05-01 09:58 48.34682 15.84413 36361 ft 386 kts 56°
2026-05-01 09:59 48.37588 15.91598 36364 ft 386 kts 56°
2026-05-01 09:59 48.40503 15.98827 36369 ft 387 kts 56°
2026-05-01 10:00 48.43397 16.05983 36374 ft 385 kts 56°
2026-05-01 10:00 48.46323 16.13110 36371 ft 386 kts 56°
2026-05-01 10:01 48.49284 16.20349 36369 ft 386 kts 56°
2026-05-01 10:01 48.52203 16.27515 36372 ft 385 kts 56°
2026-05-01 10:02 48.55138 16.34745 36369 ft 385 kts 56°
2026-05-01 10:02 48.58058 16.41953 36366 ft 386 kts 56°
2026-05-01 10:03 48.60975 16.49185 36367 ft 386 kts 56°
2026-05-01 10:03 48.63890 16.56417 36367 ft 387 kts 56°
2026-05-01 10:04 48.66782 16.63623 36364 ft 384 kts 56°
2026-05-01 10:04 48.69566 16.70574 36368 ft 386 kts 56°
2026-05-01 10:05 48.72370 16.77574 36366 ft 383 kts 55°
2026-05-01 10:05 48.75590 16.84202 36367 ft 383 kts 50°
2026-05-01 10:06 48.79036 16.90760 36364 ft 382 kts 50°
2026-05-01 10:06 48.82448 16.97314 36364 ft 383 kts 50°
2026-05-01 10:07 48.85874 17.03925 36363 ft 382 kts 50°
2026-05-01 10:07 48.89304 17.10568 36366 ft 384 kts 50°
2026-05-01 10:08 48.94414 17.20502 36365 ft 381 kts 50°
2026-05-01 10:09 48.97817 17.27133 36365 ft 383 kts 50°
2026-05-01 10:09 49.01207 17.33765 36364 ft 382 kts 50°
2026-05-01 10:10 49.04610 17.40436 36368 ft 382 kts 50°
2026-05-01 10:10 49.09683 17.50406 36364 ft 381 kts 50°
2026-05-01 10:11 49.12929 17.56811 36367 ft 381 kts 50°
2026-05-01 10:11 49.16149 17.63174 36365 ft 381 kts 50°
2026-05-01 10:12 49.19384 17.69583 36363 ft 381 kts 51°
2026-05-01 10:13 49.24234 17.79222 36360 ft 380 kts 51°
2026-05-01 10:13 49.27436 17.85608 36358 ft 380 kts 51°
2026-05-01 10:14 49.32259 17.95255 36356 ft 380 kts 51°
2026-05-01 10:14 49.35452 18.01661 36354 ft 382 kts 51°
2026-05-01 10:15 49.38677 18.08141 36345 ft 380 kts 51°
2026-05-01 10:15 49.41856 18.14551 36345 ft 379 kts 50°
2026-05-01 10:16 49.45055 18.21011 36349 ft 379 kts 50°
2026-05-01 10:17 49.49821 18.30672 36339 ft 380 kts 50°
2026-05-01 10:17 49.54594 18.40382 36337 ft 380 kts 51°
2026-05-01 10:18 49.59367 18.50117 36332 ft 380 kts 51°
2026-05-01 10:19 49.62524 18.56587 36336 ft 379 kts 51°
2026-05-01 10:19 49.65687 18.63075 36336 ft 380 kts 51°
2026-05-01 10:20 49.70706 18.72479 36335 ft 379 kts 44°
2026-05-01 10:20 49.74496 18.78053 36336 ft 378 kts 43°
2026-05-01 10:21 49.80240 18.86382 36326 ft 378 kts 42°
2026-05-01 10:22 49.85943 18.94664 36323 ft 378 kts 42°
2026-05-01 10:23 49.91731 19.03084 36325 ft 378 kts 42°
2026-05-01 10:23 49.97298 19.11654 36338 ft 378 kts 45°
2026-05-01 10:24 50.04496 19.23623 36335 ft 378 kts 45°
2026-05-01 10:25 50.11706 19.35570 36339 ft 379 kts 45°
2026-05-01 10:26 50.15401 19.41647 36337 ft 378 kts 41°
2026-05-01 10:26 50.19846 19.45939 36340 ft 378 kts 27°
2026-05-01 10:27 50.24554 19.49666 36335 ft 379 kts 28°
2026-05-01 10:28 50.31523 19.55559 36333 ft 378 kts 29°
2026-05-01 10:28 50.38419 19.61534 36330 ft 378 kts 30°
2026-05-01 10:29 50.45358 19.67603 36328 ft 379 kts 30°
2026-05-01 10:30 50.54465 19.75610 35664 ft 365 kts 30°
2026-05-01 10:31 50.58904 19.79531 34718 ft 367 kts 30°
2026-05-01 10:31 50.63393 19.83502 33730 ft 360 kts 30°
2026-05-01 10:32 50.67733 19.87347 32579 ft 358 kts 31°
2026-05-01 10:32 50.69926 19.89294 31789 ft 362 kts 30°
2026-05-01 10:32 50.74321 19.93208 30134 ft 368 kts 31°
2026-05-01 10:33 50.78790 19.97193 28360 ft 373 kts 31°
2026-05-01 10:33 50.83303 20.01222 26804 ft 361 kts 31°
2026-05-01 10:34 50.85456 20.03145 26356 ft 346 kts 31°
2026-05-01 10:34 50.87499 20.04976 25966 ft 332 kts 31°
2026-05-01 10:34 50.89443 20.06723 25598 ft 319 kts 31°
2026-05-01 10:35 50.93174 20.10077 24871 ft 302 kts 31°
2026-05-01 10:35 50.94983 20.11704 24528 ft 296 kts 31°
2026-05-01 10:35 50.96770 20.13313 24186 ft 299 kts 31°
2026-05-01 10:35 50.98586 20.14951 23838 ft 303 kts 31°
2026-05-01 10:36 51.02209 20.18220 23127 ft 294 kts 31°
2026-05-01 10:36 51.03965 20.19804 22794 ft 289 kts 30°
2026-05-01 10:36 51.05749 20.21417 22462 ft 291 kts 31°
2026-05-01 10:37 51.07560 20.23057 22100 ft 296 kts 31°
2026-05-01 10:37 51.11094 20.26259 21397 ft 287 kts 31°
2026-05-01 10:37 51.12798 20.27803 21073 ft 282 kts 31°
2026-05-01 10:38 51.14507 20.29355 20738 ft 285 kts 30°
2026-05-01 10:38 51.16259 20.30952 20388 ft 289 kts 31°
2026-05-01 10:38 51.17975 20.32514 20043 ft 285 kts 31°
2026-05-01 10:38 51.19669 20.34057 19708 ft 279 kts 31°
2026-05-01 10:39 51.21350 20.35591 19380 ft 276 kts 31°
2026-05-01 10:39 51.23002 20.37097 19083 ft 279 kts 31°
2026-05-01 10:39 51.24704 20.38650 18737 ft 283 kts 31°
2026-05-01 10:39 51.26391 20.40189 18403 ft 278 kts 31°
2026-05-01 10:40 51.28041 20.41696 18066 ft 273 kts 31°
2026-05-01 10:40 51.29683 20.43197 17740 ft 271 kts 30°
2026-05-01 10:40 51.31333 20.44710 17406 ft 275 kts 31°
2026-05-01 10:40 51.32995 20.46236 17066 ft 278 kts 30°
2026-05-01 10:41 51.34661 20.47764 16717 ft 274 kts 30°
2026-05-01 10:41 51.36290 20.49256 16381 ft 269 kts 30°
2026-05-01 10:41 51.39513 20.52216 15714 ft 270 kts 30°
2026-05-01 10:42 51.41137 20.53711 15376 ft 272 kts 30°
2026-05-01 10:42 51.42783 20.55227 15016 ft 268 kts 30°
2026-05-01 10:42 51.44362 20.56681 14685 ft 264 kts 30°
2026-05-01 10:42 51.45939 20.58135 14359 ft 261 kts 30°
2026-05-01 10:43 51.47530 20.59605 14020 ft 266 kts 30°
2026-05-01 10:43 51.49145 20.61099 13672 ft 269 kts 30°
2026-05-01 10:43 51.50744 20.62576 13330 ft 264 kts 30°
2026-05-01 10:43 51.52352 20.64065 12984 ft 260 kts 30°
2026-05-01 10:44 51.53895 20.65495 12653 ft 259 kts 30°
2026-05-01 10:44 51.55479 20.66962 12303 ft 263 kts 30°
2026-05-01 10:44 51.57059 20.68427 11948 ft 264 kts 30°
2026-05-01 10:44 51.58630 20.69887 11598 ft 260 kts 30°
2026-05-01 10:45 51.60184 20.71333 11256 ft 256 kts 30°
2026-05-01 10:45 51.61716 20.72759 10918 ft 254 kts 30°
2026-05-01 10:45 51.63255 20.74191 10580 ft 258 kts 30°
2026-05-01 10:45 51.64777 20.75608 10342 ft 253 kts 30°
2026-05-01 10:46 51.66279 20.77007 10230 ft 241 kts 30°
2026-05-01 10:46 51.67733 20.78366 9964 ft 237 kts 30°
2026-05-01 10:46 51.69177 20.79718 9635 ft 236 kts 30°
2026-05-01 10:46 51.70609 20.81058 9355 ft 234 kts 30°
2026-05-01 10:47 51.72023 20.82379 9046 ft 239 kts 30°
2026-05-01 10:47 51.73464 20.83724 8741 ft 241 kts 30°
2026-05-01 10:47 51.74905 20.85072 8449 ft 238 kts 30°
2026-05-01 10:47 51.76393 20.86464 8148 ft 234 kts 29°
2026-05-01 10:48 51.77893 20.87868 7828 ft 240 kts 29°
2026-05-01 10:48 51.79395 20.89276 7287 ft 248 kts 29°
2026-05-01 10:48 51.80941 20.90732 6890 ft 247 kts 29°
2026-05-01 10:48 51.82468 20.92168 6581 ft 243 kts 29°
2026-05-01 10:49 51.83935 20.93546 6267 ft 240 kts 28°
2026-05-01 10:49 51.85347 20.94872 5978 ft 237 kts 29°
2026-05-01 10:49 51.86801 20.96242 5703 ft 233 kts 29°
2026-05-01 10:49 51.88242 20.97608 5397 ft 235 kts 29°
2026-05-01 10:50 51.89742 20.99026 5128 ft 236 kts 28°
2026-05-01 10:50 51.91155 21.00359 4918 ft 230 kts 28°
2026-05-01 10:50 51.92524 21.01654 4719 ft 224 kts 28°
2026-05-01 10:50 51.93856 21.02917 4527 ft 219 kts 28°
2026-05-01 10:51 51.95179 21.04167 4340 ft 213 kts 28°
2026-05-01 10:51 51.96463 21.05378 4107 ft 210 kts 28°
2026-05-01 10:51 51.97718 21.06569 3873 ft 209 kts 28°
2026-05-01 10:51 51.98967 21.07762 3654 ft 207 kts 28°
2026-05-01 10:52 52.00237 21.08919 3445 ft 209 kts 22°
2026-05-01 10:52 52.01674 21.09369 3214 ft 209 kts 349°
2026-05-01 10:52 52.03005 21.08400 3090 ft 208 kts 332°
2026-05-01 10:52 52.04288 21.07332 2873 ft 199 kts 335°
2026-05-01 10:53 52.05519 21.06306 2593 ft 193 kts 333°
2026-05-01 10:53 52.06695 21.05281 2310 ft 185 kts 333°
2026-05-01 10:53 52.07783 21.04343 2079 ft 167 kts 333°
2026-05-01 10:53 52.08780 21.03476 1903 ft 150 kts 333°
2026-05-01 10:54 52.09698 21.02679 1670 ft 148 kts 333°
2026-05-01 10:54 52.10615 21.01876 1461 ft 149 kts 333°
2026-05-01 10:54 52.11505 21.01080 1322 ft 146 kts 333°
2026-05-01 10:54 52.12407 21.00306 1130 ft 148 kts 336°
2026-05-01 10:55 52.13336 20.99509 880 ft 152 kts 333°
2026-05-01 10:55 52.14252 20.98727 645 ft 146 kts 332°
2026-05-01 10:55 52.15154 20.97940 458 ft 150 kts 334°
2026-05-01 10:55 52.16051 20.97167 369 ft 138 kts 334°
2026-05-01 10:56 52.16730 20.96579 366 ft 75 kts 331°
2026-05-01 10:56 52.17048 20.96306 366 ft 27 kts 336°
2026-05-01 10:56 52.17216 20.96250 366 ft 20 kts 357°
2026-05-01 10:56 52.17316 20.96248 366 ft 8 kts
2026-05-01 10:57 52.17371 20.96262 366 ft 7 kts 26°
2026-05-01 10:57 52.17423 20.96332 366 ft 11 kts 28°
2026-05-01 10:57 52.17508 20.96299 366 ft 14 kts 331°
2026-05-01 10:57 52.17613 20.96207 366 ft 18 kts 332°
2026-05-01 10:58 52.17714 20.96118 366 ft 11 kts 332°
2026-05-01 10:58 52.17789 20.96110 366 ft 12 kts 40°
2026-05-01 10:58 52.17835 20.96235 366 ft 8 kts 52°
2026-05-01 10:58 52.17876 20.96228 366 ft 4 kts 326°
2026-05-01 10:59 52.17900 20.96207 366 ft 0 kts 333°